TimeCST,TemperatureF,Dew PointF,Humidity,Sea Level PressureIn,VisibilityMPH,Wind Direction,Wind SpeedMPH,Gust SpeedMPH,PrecipitationIn,Events,Conditions,WindDirDegrees,DateUTC
12:08 AM,17.6,15.8,93,30.09,3.0,North,5.8,-,N/A,Snow,Light Snow,10,2012-12-09 06:08:00
12:28 AM,17.6,15.8,93,30.09,4.0,NNE,6.9,-,N/A,Snow,Light Snow,20,2012-12-09 06:28:00
1:08 AM,17.6,15.8,93,30.10,4.0,NNE,10.4,-,N/A,Snow,Light Snow,20,2012-12-09 07:08:00
1:28 AM,15.8,15.8,100,30.11,4.0,NNE,6.9,-,N/A,Snow,Light Snow,20,2012-12-09 07:28:00
1:48 AM,15.8,14.0,93,30.10,3.0,North,10.4,-,N/A,Snow,Light Snow,10,2012-12-09 07:48:00
2:08 AM,15.8,14.0,93,30.11,2.5,NNE,8.1,-,N/A,Snow,Light Snow,20,2012-12-09 08:08:00
2:28 AM,15.8,14.0,93,30.12,5.0,NNE,9.2,-,N/A,Snow,Light Snow,20,2012-12-09 08:28:00
2:48 AM,15.8,14.0,93,30.12,10.0,North,6.9,-,N/A,Snow,Light Snow,10,2012-12-09 08:48:00
3:07 AM,15.8,12.2,86,30.12,7.0,North,8.1,-,N/A,Snow,Light Snow,10,2012-12-09 09:07:00
3:28 AM,15.8,12.2,86,30.12,10.0,North,11.5,-,N/A,,Overcast,10,2012-12-09 09:28:00
3:48 AM,15.8,12.2,86,30.12,10.0,North,8.1,-,N/A,,Overcast,10,2012-12-09 09:48:00
4:08 AM,14.0,12.2,93,30.12,10.0,NNE,10.4,-,N/A,,Scattered Clouds,20,2012-12-09 10:08:00
4:28 AM,14.0,12.2,93,30.12,10.0,NNE,9.2,-,N/A,,Overcast,20,2012-12-09 10:28:00
4:48 AM,14.0,12.2,93,30.13,7.0,NNE,10.4,-,N/A,Snow,Light Snow,20,2012-12-09 10:48:00
5:08 AM,14.0,12.2,93,30.13,7.0,NNE,9.2,-,N/A,,Overcast,20,2012-12-09 11:08:00
5:28 AM,14.0,10.4,86,30.14,7.0,North,9.2,-,N/A,,Overcast,10,2012-12-09 11:28:00
5:48 AM,14.0,10.4,86,30.15,7.0,NNE,10.4,16.1,N/A,,Overcast,20,2012-12-09 11:48:00
6:08 AM,14.0,10.4,86,30.15,7.0,North,10.4,16.1,N/A,,Overcast,10,2012-12-09 12:08:00
6:28 AM,12.2,10.4,92,30.16,7.0,NNE,9.2,-,N/A,,Overcast,20,2012-12-09 12:28:00
6:48 AM,12.2,10.4,92,30.16,7.0,North,8.1,16.1,N/A,Snow,Light Snow,10,2012-12-09 12:48:00
7:08 AM,12.2,10.4,92,30.17,7.0,North,6.9,-,N/A,,Overcast,360,2012-12-09 13:08:00
7:28 AM,12.2,10.4,92,30.17,7.0,North,10.4,16.1,N/A,,Overcast,10,2012-12-09 13:28:00
7:48 AM,12.2,8.6,85,30.18,7.0,North,6.9,-,N/A,Snow,Light Snow,360,2012-12-09 13:48:00
8:28 AM,10.4,8.6,92,30.19,10.0,North,9.2,17.3,N/A,,Overcast,360,2012-12-09 14:28:00
8:48 AM,12.2,8.6,85,30.19,10.0,North,9.2,16.1,N/A,,Mostly Cloudy,10,2012-12-09 14:48:00
9:08 AM,12.2,8.6,85,30.19,4.0,North,8.1,-,N/A,Snow,Light Snow,360,2012-12-09 15:08:00
9:28 AM,12.2,8.6,85,30.20,3.0,North,10.4,17.3,N/A,Snow,Light Snow,360,2012-12-09 15:28:00
9:48 AM,12.2,8.6,85,30.20,4.0,NNE,12.7,18.4,N/A,,Overcast,20,2012-12-09 15:48:00
10:28 AM,12.2,6.8,79,30.21,10.0,North,10.4,-,N/A,,Mostly Cloudy,360,2012-12-09 16:28:00
10:48 AM,12.2,8.6,85,30.21,10.0,North,12.7,19.6,N/A,,Mostly Cloudy,360,2012-12-09 16:48:00
11:08 AM,12.2,6.8,79,30.21,10.0,North,11.5,17.3,N/A,,Mostly Cloudy,360,2012-12-09 17:08:00
11:28 AM,12.2,6.8,79,30.20,10.0,North,5.8,-,N/A,,Overcast,360,2012-12-09 17:28:00
11:48 AM,12.2,6.8,79,30.19,10.0,North,8.1,-,N/A,,Overcast,360,2012-12-09 17:48:00
12:08 PM,12.2,6.8,79,30.19,10.0,North,10.4,16.1,N/A,,Overcast,10,2012-12-09 18:08:00
12:28 PM,12.2,6.8,79,30.18,10.0,North,12.7,-,N/A,,Overcast,360,2012-12-09 18:28:00
12:48 PM,12.2,6.8,79,30.18,10.0,North,10.4,-,N/A,,Overcast,360,2012-12-09 18:48:00
1:08 PM,12.2,6.8,79,30.17,10.0,NNW,8.1,-,N/A,,Overcast,340,2012-12-09 19:08:00
1:28 PM,12.2,5.0,73,30.16,10.0,North,10.4,17.3,N/A,,Overcast,350,2012-12-09 19:28:00
1:48 PM,10.4,3.2,73,30.16,10.0,North,8.1,17.3,N/A,,Scattered Clouds,350,2012-12-09 19:48:00
2:28 PM,10.4,3.2,73,30.15,10.0,North,10.4,17.3,N/A,,Clear,350,2012-12-09 20:28:00
2:48 PM,8.6,1.4,73,30.15,10.0,NNW,8.1,-,N/A,,Scattered Clouds,340,2012-12-09 20:48:00
3:08 PM,8.6,1.4,73,30.16,10.0,North,6.9,-,N/A,,Mostly Cloudy,350,2012-12-09 21:08:00
3:28 PM,8.6,1.4,73,30.16,10.0,NNW,5.8,16.1,N/A,,Overcast,340,2012-12-09 21:28:00
3:48 PM,6.8,1.4,79,30.16,10.0,North,9.2,-,N/A,,Overcast,350,2012-12-09 21:48:00
4:08 PM,6.8,-0.4,72,30.16,10.0,NNW,8.1,-,N/A,,Scattered Clouds,330,2012-12-09 22:08:00
4:28 PM,5.0,-0.4,78,30.16,10.0,NNW,5.8,-,N/A,,Scattered Clouds,330,2012-12-09 22:28:00
5:08 PM,3.2,-0.4,85,30.16,10.0,NNW,6.9,-,N/A,,Mostly Cloudy,340,2012-12-09 23:08:00
5:48 PM,1.4,-2.2,85,30.17,10.0,NNW,5.8,-,N/A,,Clear,330,2012-12-09 23:48:00
6:08 PM,1.4,-2.2,85,30.17,10.0,NNW,4.6,-,N/A,,Clear,340,2012-12-10 00:08:00
6:28 PM,1.4,-2.2,85,30.17,10.0,NNW,4.6,-,N/A,,Clear,340,2012-12-10 00:28:00
6:48 PM,1.4,-2.2,85,30.17,10.0,NNW,3.5,-,N/A,,Clear,330,2012-12-10 00:48:00
7:08 PM,1.4,-2.2,85,30.17,10.0,NNW,5.8,-,N/A,,Clear,340,2012-12-10 01:08:00
7:28 PM,-0.4,-2.2,92,30.16,10.0,North,5.8,-,N/A,,Clear,350,2012-12-10 01:28:00
7:48 PM,-0.4,-4.0,85,30.16,10.0,North,5.8,-,N/A,,Clear,350,2012-12-10 01:48:00
8:08 PM,-0.4,-4.0,85,30.15,10.0,NNW,6.9,-,N/A,,Clear,340,2012-12-10 02:08:00
8:27 PM,-0.4,-4.0,85,30.15,10.0,NNW,5.8,-,N/A,,Clear,340,2012-12-10 02:27:00
8:48 PM,-0.4,-4.0,85,30.14,10.0,NNW,4.6,-,N/A,,Clear,340,2012-12-10 02:48:00
9:08 PM,-0.4,-4.0,85,30.14,10.0,NNW,5.8,-,N/A,,Clear,340,2012-12-10 03:08:00
9:27 PM,-0.4,-4.0,85,30.13,10.0,NNW,4.6,-,N/A,,Scattered Clouds,340,2012-12-10 03:27:00
9:48 PM,-2.2,-5.8,85,30.13,10.0,North,4.6,-,N/A,,Scattered Clouds,350,2012-12-10 03:48:00
10:08 PM,-2.2,-5.8,85,30.13,10.0,NNW,4.6,-,N/A,,Clear,340,2012-12-10 04:08:00
10:27 PM,-2.2,-5.8,85,30.12,10.0,North,3.5,-,N/A,,Clear,350,2012-12-10 04:27:00
10:48 PM,-4.0,-7.6,85,30.10,10.0,NNE,3.5,-,N/A,,Clear,20,2012-12-10 04:48:00
11:08 PM,-4.0,-7.6,85,30.10,10.0,Calm,Calm,-,N/A,,Mostly Cloudy,0,2012-12-10 05:08:00
11:27 PM,-2.2,-5.8,85,30.09,10.0,NNW,4.6,-,N/A,,Overcast,340,2012-12-10 05:27:00
11:48 PM,-2.2,-5.8,85,30.09,10.0,NNW,3.5,-,N/A,,Overcast,330,2012-12-10 05:48:00